Wind_Speed
8 8 8 8 7 7 7 7 7 7 6 6 6 6 6 6 5 5 5 4 4 3 2 2 2 3 3 3 4 5 5 5 6 7 6 5 5 2 5 5 4 3 4 5 5 4 3 2 3 2 1 1 3 2 2 5 3 2 2 3 2 2 2 2 3 2 3 5 6 4 1 3 2 3 1 3 5 6 5 3 3 2 3 3 4 7 9 8
9 8 8 8 8 7 7 7 6 6 6 6 6 5 5 5 5 5 5 4 4 3 3 3 3 3 4 4 5 6 5 6 7 7 7 5 2 6 7 5 4 3 5 5 5 3 3 2 2 1 1 1 3 2 1 3 3 2 2 3 0 2 3 3 3 4 2 3 5 3 1 2 3 1 1 4 5 5 5 6 8 4 4 2 6 7 6 5
9 8 8 8 7 7 7 6 6 6 6 6 6 6 6 6 6 5 5 5 4 4 4 4 4 4 5 5 6 6 6 7 6 4 4 2 6 8 8 5 3 5 6 6 4 2 2 2 1 0 2 1 2 1 0 2 2 1 3 3 2 4 4 4 3 4 3 3 2 2 1 3 4 2 3 5 7 7 2 4 6 6 6 3 7 5 3 3
9 9 8 8 7 7 7 6 6 6 7 7 7 7 7 6 6 6 6 6 5 5 5 5 5 5 5 6 6 6 7 7 3 3 3 6 9 9 7 4 1 6 8 7 5 3 0 1 1 1 4 2 2 1 0 3 2 1 3 2 5 4 3 4 3 4 4 2 1 0 0 5 3 3 6 6 9 5 4 6 2 2 2 4 6 3 1 1
8 8 8 8 8 8 8 8 7 7 7 8 8 7 7 7 7 6 6 6 5 5 5 5 5 5 6 6 6 6 6 4 1 2 4 9 9 8 6 3 4 7 9 7 6 5 1 1 1 1 4 2 1 2 1 3 3 1 1 4 5 2 1 5 3 2 3 1 1 2 3 3 2 5 7 7 7 1 4 1 4 5 6 6 4 2 1 0
8 8 8 9 9 9 9 9 9 9 8 8 8 8 8 8 7 7 6 6 6 6 6 6 6 6 6 6 6 6 5 4 1 1 5 8 8 6 5 6 8 9 9 7 6 4 1 1 3 3 3 2 1 1 3 2 3 2 2 3 2 0 1 4 3 2 1 2 3 4 3 2 5 7 6 5 5 1 2 4 5 6 6 4 2 2 1 2
9 9 9 9 10 10 10 10 10 10 10 9 9 9 9 8 7 7 7 7 6 6 6 6 6 6 6 6 6 5 5 5 3 4 6 7 8 7 8 9 11 10 8 6 3 3 1 3 4 3 4 3 1 0 2 0 3 4 1 4 2 0 1 2 3 3 4 5 5 3 4 6 9 6 4 4 3 4 5 3 2 3 3 2 1 1 2 3
10 10 10 10 11 11 11 11 11 11 11 10 10 10 9 9 8 8 7 7 7 7 7 7 7 6 7 7 6 5 6 6 6 7 9 10 11 11 12 11 11 10 7 4 2 2 2 4 4 3 4 1 0 1 1 2 4 4 1 4 2 2 3 3 3 5 6 8 6 5 7 10 8 4 4 4 3 6 5 1 2 2 2 1 2 3 4 5
12 11 11 11 11 12 12 12 12 12 12 11 11 10 10 10 9 9 8 8 8 8 8 7 7 6 7 6 4 5 6 6 6 8 10 12 13 13 13 12 11 9 7 4 2 2 3 3 3 3 4 2 1 0 0 4 2 1 1 2 2 3 5 5 6 8 8 8 6 7 10 9 5 4 4 5 5 6 4 3 2 2 1 2 4 5 5 5
14 13 12 12 12 13 13 13 13 13 12 12 12 11 12 11 10 10 10 9 9 9 9 8 7 6 7 5 4 5 5 6 6 7 8 10 11 12 12 11 11 8 5 4 2 3 3 3 2 3 4 1 2 1 1 3 1 2 1 3 6 7 6 6 8 8 6 7 8 8 9 5 6 6 4 6 7 6 4 3 3 3 4 6 6 6 5 5
15 14 14 13 13 13 14 14 14 14 13 13 13 12 12 12 11 11 10 10 10 10 9 8 8 7 7 5 6 7 5 7 7 7 8 8 8 9 9 9 8 6 4 3 3 4 5 5 3 3 3 1 2 2 2 1 1 1 3 6 9 9 8 9 8 7 6 5 7 9 6 4 7 6 3 8 9 7 5 4 3 5 6 6 6 5 4 3
16 16 15 15 14 14 15 15 15 15 14 14 14 13 13 13 12 12 12 11 11 10 10 9 8 7 7 7 11 12 11 12 12 10 9 8 9 8 8 8 7 5 4 3 5 5 6 5 4 3 2 0 1 2 2 1 0 2 4 6 7 8 10 10 7 5 5 3 5 7 5 6 10 6 6 9 9 7 6 4 4 4 5 5 5 4 3 3
18 18 17 16 16 15 15 16 16 16 15 15 14 14 14 14 13 13 12 11 11 11 10 9 8 8 8 8 12 14 14 15 15 13 12 10 10 9 9 9 7 7 6 6 7 6 6 6 5 4 3 3 2 1 1 3 1 4 4 5 6 8 7 8 6 5 5 4 7 6 5 6 11 9 9 9 9 8 7 6 5 4 5 6 5 4 4 4
19 19 18 18 17 16 16 16 16 16 16 16 15 15 15 14 14 13 13 12 11 10 10 9 8 8 8 9 12 14 14 14 13 14 14 13 12 11 11 10 10 10 9 8 8 6 7 6 5 4 4 3 0 2 3 3 4 4 4 4 5 6 3 8 7 6 5 5 9 7 6 3 8 10 9 9 9 9 8 7 6 5 5 7 7 5 5 5
21 20 19 19 19 17 16 17 17 16 16 16 15 15 15 14 14 13 13 12 11 10 9 8 8 7 7 10 13 15 15 15 16 16 14 14 13 12 13 13 11 9 7 7 7 7 7 6 5 4 3 3 3 3 5 5 5 4 4 5 5 4 2 7 7 5 3 4 9 8 5 2 8 10 8 8 10 10 9 7 6 5 6 7 6 5 5 6
23 22 20 20 20 18 17 18 17 16 16 16 16 16 15 15 14 13 13 12 11 10 8 8 8 7 6 9 12 13 14 15 16 16 15 15 14 12 13 11 8 8 7 7 7 7 7 6 4 3 3 3 5 4 5 5 5 5 5 6 5 5 4 4 6 4 2 4 9 10 6 3 6 10 9 8 9 10 9 8 7 6 7 7 6 6 6 5
24 23 22 22 21 20 18 18 18 17 16 16 16 16 15 14 13 13 12 11 10 9 8 7 6 7 8 10 11 13 16 16 14 14 15 15 14 13 11 8 7 8 7 7 6 6 6 6 4 4 5 5 5 4 5 5 5 5 5 5 7 7 6 4 3 5 5 4 7 9 9 8 5 12 10 10 9 9 10 9 8 7 6 7 7 6 6 5
25 24 23 23 22 21 19 18 18 18 17 16 16 15 14 14 13 12 11 11 9 6 7 8 5 3 9 13 12 11 14 15 14 13 13 13 13 12 10 8 7 7 7 6 6 7 6 5 4 4 5 6 6 6 6 7 7 6 5 4 6 6 7 8 3 5 6 6 7 8 10 11 6 12 11 11 11 10 10 8 8 7 6 6 6 5 6 6
26 25 24 23 23 21 19 18 19 18 17 16 15 14 13 11 10 11 12 11 10 6 3 9 13 5 3 8 14 14 12 11 11 13 13 13 12 11 10 8 8 8 8 5 7 9 7 5 5 6 6 7 9 9 10 10 8 7 6 5 7 6 7 7 1 4 3 5 9 11 11 13 9 10 12 11 11 10 9 8 7 7 6 6 5 5 6 5
26 26 25 24 23 21 19 18 18 19 18 16 15 13 10 8 6 8 12 16 18 16 8 7 13 11 4 3 8 12 10 9 10 12 14 13 11 10 9 8 8 8 7 6 6 7 7 6 6 8 9 9 11 14 13 8 5 5 6 7 8 8 9 6 2 5 2 4 9 11 12 14 13 8 11 12 11 10 10 9 8 8 7 6 5 5 5 5
26 26 25 24 23 21 19 18 18 19 19 17 16 14 8 8 7 3 7 14 20 22 19 15 14 14 11 7 7 8 7 8 10 12 13 13 13 11 9 10 8 7 8 7 4 4 5 7 9 12 11 7 7 11 12 7 5 7 7 8 8 8 9 6 3 5 4 3 8 11 13 13 15 11 10 13 10 10 12 11 10 9 7 6 6 6 6 7
25 26 26 25 23 21 20 19 19 20 20 19 19 18 13 12 12 7 4 8 12 16 20 22 22 19 17 15 13 10 9 8 9 14 14 14 15 11 10 12 9 6 8 7 3 3 6 9 12 12 6 1 1 4 8 8 8 8 6 7 7 6 8 6 4 5 3 3 6 9 11 11 14 11 10 13 11 10 10 9 8 9 9 8 7 7 7 8
24 25 26 25 22 20 19 19 19 21 22 21 22 22 19 14 14 12 9 8 9 15 19 22 25 23 20 20 20 16 13 11 11 15 17 17 16 13 11 11 10 8 8 10 8 7 7 7 11 10 5 4 4 4 6 7 8 8 6 6 7 6 6 6 3 4 4 5 5 7 8 10 12 8 9 11 10 8 7 7 6 8 8 8 9 9 8 9
23 25 26 24 21 19 18 16 17 21 23 23 24 23 19 14 12 10 8 8 9 12 18 22 23 23 22 21 22 20 17 15 12 13 20 21 16 13 12 11 12 9 9 13 13 13 10 2 3 8 7 7 8 7 8 7 6 9 9 8 8 7 7 7 2 0 4 7 6 6 8 9 12 13 9 7 6 6 7 8 8 10 10 9 11 12 10 10
23 26 26 24 21 18 16 15 19 23 22 23 24 22 19 14 9 6 4 7 9 7 12 18 19 21 24 23 21 17 14 16 14 12 20 23 17 10 9 11 11 10 12 15 13 14 11 2 5 7 6 8 9 7 9 8 6 8 10 12 12 11 10 10 6 3 6 7 5 4 8 6 5 11 9 7 6 7 9 11 12 13 13 11 13 14 14 15
23 26 26 24 20 16 16 17 20 22 20 22 24 19 18 14 7 5 2 4 8 5 7 12 13 14 18 21 20 15 7 12 17 17 19 24 22 13 7 8 8 8 9 11 9 7 4 4 5 7 6 8 9 8 9 9 7 7 4 6 10 11 10 10 8 3 5 6 2 3 7 5 3 5 6 7 7 9 9 10 13 14 14 13 14 14 17 19
24 27 27 24 21 21 22 17 17 19 18 19 20 17 16 13 8 4 2 6 9 7 10 9 10 11 11 16 24 17 2 6 14 16 21 24 23 16 9 8 6 5 3 4 5 3 5 7 5 6 7 8 8 8 8 9 8 5 2 0 4 7 8 9 8 6 6 6 2 5 6 7 7 4 6 7 7 8 9 9 11 13 13 14 14 14 16 19
25 27 26 25 24 26 25 18 14 19 19 14 14 17 16 14 12 6 3 7 4 8 9 7 9 12 12 16 24 15 3 9 9 11 22 26 21 13 10 11 8 7 8 7 6 2 4 9 9 9 9 8 7 5 6 11 8 2 3 2 2 2 5 6 6 6 6 6 5 7 6 5 8 4 6 7 7 8 10 11 12 13 15 15 15 15 16 19
26 27 26 25 24 24 24 21 16 17 18 11 10 18 18 17 11 4 3 6 2 6 5 8 9 10 14 16 16 8 4 4 1 6 18 21 19 10 5 10 9 8 12 12 9 0 2 2 4 8 9 7 4 3 2 7 5 3 6 4 4 2 1 3 5 5 5 7 8 8 8 6 8 4 6 5 5 9 9 10 12 15 17 17 17 17 17 21
27 28 26 24 24 26 27 28 23 18 15 13 15 20 21 15 7 4 7 6 3 4 5 9 9 10 16 14 9 6 4 2 4 10 11 9 14 9 1 4 6 5 8 9 8 1 3 2 1 4 4 1 5 7 6 1 4 8 7 4 4 3 2 2 4 3 5 9 9 10 13 10 6 4 6 5 4 7 8 10 12 16 19 19 19 19 20 24
28 29 27 26 28 31 31 32 30 23 17 16 20 24 20 8 2 6 9 2 1 3 6 7 7 11 17 14 8 9 7 3 8 12 8 5 9 8 4 5 4 4 5 7 7 4 4 3 1 3 2 4 7 5 4 4 4 6 5 4 4 3 3 3 4 4 7 8 4 5 9 12 8 4 3 4 4 5 8 11 14 17 21 22 21 21 22 27
31 30 29 29 31 33 34 35 31 23 19 19 25 26 14 4 3 8 6 4 1 6 8 9 9 11 16 12 6 9 8 6 10 11 8 7 8 9 10 8 7 6 6 7 7 4 5 7 6 4 4 7 7 4 3 2 3 5 5 6 5 4 4 5 5 6 7 5 2 2 3 8 10 8 6 3 6 6 6 9 16 21 23 25 24 22 24 30
34 33 32 31 33 36 37 35 27 22 21 22 26 20 7 4 9 12 10 5 1 2 7 9 11 12 14 10 5 8 7 5 10 10 8 10 8 9 12 11 11 8 4 6 7 4 3 6 8 6 3 10 12 8 6 4 6 9 8 8 7 6 6 7 6 6 6 2 2 2 2 4 6 8 10 6 5 6 5 6 17 25 26 26 25 24 27 32
37 36 37 36 35 37 38 35 28 24 24 26 23 12 6 9 13 13 13 9 2 3 6 9 11 11 12 9 6 10 7 4 11 9 7 10 8 8 11 13 16 10 2 4 6 6 6 4 9 10 6 13 16 11 8 6 8 10 8 8 8 7 7 6 5 5 4 1 2 2 3 4 4 1 1 2 5 6 5 5 12 21 24 24 24 25 30 34
39 38 40 40 38 38 39 39 32 27 30 30 17 8 9 12 12 11 12 9 5 5 6 10 12 10 10 7 5 10 6 2 10 9 6 10 8 8 11 11 15 12 6 6 4 6 9 5 8 8 6 16 16 9 7 7 7 7 6 8 9 6 5 4 1 1 1 1 2 5 4 4 3 3 4 5 4 5 5 5 11 18 22 23 23 25 32 36
41 40 41 43 46 42 40 41 35 32 35 28 11 8 13 12 7 6 9 10 9 9 10 10 9 7 9 6 6 10 5 1 10 9 6 10 9 10 10 9 15 16 11 8 3 5 7 2 6 5 3 10 9 4 7 5 3 6 6 8 4 1 3 2 1 2 1 6 4 6 5 4 2 3 6 7 5 6 7 7 12 18 21 23 22 25 34 38
43 42 43 47 50 46 44 45 39 39 39 23 10 11 13 10 6 4 8 12 12 14 11 7 8 9 10 8 7 12 7 4 10 8 6 7 7 11 13 9 14 19 17 12 4 3 5 2 3 6 4 4 2 2 3 1 1 5 6 6 4 3 3 2 4 2 3 8 5 6 9 7 6 4 5 7 7 8 8 9 12 17 21 22 22 26 35 40
43 43 46 50 50 48 48 48 44 45 36 14 10 15 11 9 12 8 7 10 13 15 10 9 9 10 11 9 8 13 11 7 10 8 6 7 5 10 15 10 12 19 22 16 4 2 5 4 2 3 3 4 2 1 4 2 1 0 2 4 4 3 5 5 5 5 6 8 5 6 10 9 8 6 5 9 11 10 11 11 12 16 20 22 22 26 34 38
44 39 41 49 51 48 48 48 49 46 27 7 9 15 11 10 15 12 8 9 11 13 12 12 10 9 11 11 8 13 12 9 11 9 7 7 5 10 16 11 10 17 22 18 7 2 5 5 3 0 1 5 5 5 8 7 4 1 2 4 3 2 4 5 5 4 5 7 6 5 6 6 8 9 10 13 13 12 14 12 12 16 21 25 25 27 35 42
43 28 26 46 53 48 47 48 45 33 15 8 10 12 8 7 11 13 13 12 9 10 11 12 13 11 10 13 9 10 10 9 11 8 7 8 7 8 14 13 9 13 20 18 8 4 4 5 4 1 2 5 5 7 11 11 9 6 6 8 6 3 1 2 5 5 4 6 6 7 6 3 3 5 9 13 12 12 15 13 12 16 22 25 26 31 40 46
38 15 15 39 47 47 51 43 27 16 8 9 12 12 10 9 10 12 17 17 12 9 8 8 13 12 8 12 11 9 7 7 8 7 5 9 9 6 12 16 12 11 13 12 9 7 5 5 6 3 4 7 5 4 5 4 6 9 9 10 10 8 5 4 6 6 4 4 4 5 8 3 3 1 0 4 6 9 14 14 13 17 23 25 26 33 43 48
30 10 12 30 38 48 50 26 11 12 9 13 19 15 9 9 12 13 16 17 12 9 7 5 11 13 9 10 11 8 8 6 8 9 6 10 13 8 10 17 16 16 13 7 8 6 2 3 7 5 4 5 2 3 2 2 2 5 7 8 8 8 8 8 7 4 4 3 1 2 7 3 2 2 4 4 4 3 9 13 13 16 22 24 26 30 39 46
23 13 13 23 36 49 40 12 7 13 9 16 24 18 10 9 11 12 15 16 11 7 7 5 7 12 8 7 8 9 10 8 9 12 10 10 10 4 8 16 16 15 11 5 4 5 4 1 6 5 2 2 3 3 2 2 2 5 7 6 7 10 10 7 3 1 4 5 3 3 8 4 2 3 4 3 3 3 3 9 12 14 18 22 23 25 32 41
14 14 15 26 42 49 30 8 9 12 10 15 17 16 16 13 12 12 12 14 12 7 8 7 5 7 6 4 6 9 12 10 9 11 10 8 6 3 6 14 15 12 8 1 4 10 7 4 6 6 5 5 4 4 4 4 5 7 8 8 9 10 8 2 1 0 5 7 8 7 9 3 3 1 2 1 1 1 2 6 10 13 15 19 21 23 29 36
7 8 12 27 45 45 27 15 15 12 12 15 14 17 18 11 13 18 13 12 13 8 8 8 7 8 4 3 6 9 12 12 9 8 6 4 3 2 2 11 12 9 6 1 6 11 8 4 7 9 10 10 8 6 6 6 6 5 8 12 13 13 10 5 2 6 9 6 8 10 9 2 4 1 2 2 3 4 5 6 8 10 13 18 23 26 29 34
5 4 5 12 25 25 15 13 17 12 11 14 12 15 18 11 11 17 16 13 15 13 8 3 5 8 5 5 8 9 13 12 4 4 6 5 3 2 1 7 7 6 6 7 13 12 3 3 10 13 12 9 4 2 1 6 9 9 12 15 15 16 15 8 5 9 7 3 8 12 9 5 3 5 6 5 6 6 5 7 8 10 12 16 23 27 29 34
6 3 5 5 9 10 5 4 9 11 13 16 10 9 18 18 10 9 13 14 15 16 8 2 4 10 8 11 13 10 11 10 3 3 6 4 3 3 1 2 4 5 5 8 14 11 2 6 13 15 16 9 2 2 1 3 9 13 15 17 16 15 16 13 13 12 5 3 12 11 8 10 10 8 8 8 7 6 6 7 10 11 12 14 18 23 26 30
9 5 10 12 5 3 6 6 6 10 15 16 10 7 15 20 14 10 11 11 12 16 10 2 7 15 14 15 13 8 9 9 7 8 6 4 4 3 3 1 2 5 5 5 8 6 2 7 10 12 16 14 3 2 1 2 3 6 11 16 17 17 19 19 20 17 9 9 16 8 10 14 12 9 11 10 8 8 7 8 9 9 11 15 17 20 24 28
9 5 8 15 8 0 6 6 3 7 13 12 10 10 13 18 20 16 9 6 8 12 12 10 13 16 15 14 11 9 10 10 10 10 7 6 6 5 3 1 3 6 6 4 4 2 2 6 6 6 12 15 9 4 2 1 1 3 6 11 14 18 20 19 19 18 13 16 17 7 5 10 7 7 11 8 7 7 6 7 8 7 11 16 18 20 24 28
13 11 10 11 7 2 3 4 2 5 9 9 9 11 12 16 21 18 10 8 10 11 14 18 19 16 14 13 11 11 12 12 11 10 9 9 6 5 5 4 4 6 5 4 3 2 3 4 3 4 6 11 8 5 3 3 2 3 7 10 11 11 13 14 15 13 12 17 17 10 8 9 5 5 4 5 5 6 6 7 8 8 11 15 18 20 23 27
17 20 17 11 5 4 4 3 4 5 5 7 9 9 12 17 20 16 7 6 9 9 11 19 21 14 10 13 15 14 13 10 7 6 11 12 9 9 8 5 7 8 6 6 4 4 5 3 3 4 7 8 6 7 6 3 1 5 13 16 12 7 7 9 11 11 13 16 15 12 12 9 4 5 3 3 5 6 6 8 9 10 13 16 19 22 24 28
16 19 20 14 5 6 7 3 5 7 4 6 8 9 11 14 14 12 6 3 6 7 8 13 15 9 8 13 16 13 9 6 5 6 10 10 9 10 9 9 12 11 9 7 4 3 6 5 3 5 7 4 2 6 7 5 2 7 14 13 13 12 9 9 10 12 13 11 10 11 12 6 3 5 4 4 5 6 9 12 14 14 16 19 23 25 27 29
Wind_Direction
193 194 196 196 197 196 196 195 191 185 184 183 180 178 172 173 171 170 175 180 191 202 223 247 276 289 304 321 327 328 330 329 326 327 320 303 304 215 168 145 121 81 37 13 14 5 349 328 320 350 61 73 70 53 33 34 18 253 241 239 222 185 149 142 166 130 107 125 129 126 87 287 244 155 158 286 227 231 262 143 141 223 207 238 286 299 301 309
194 196 196 196 198 196 197 198 196 192 191 192 190 187 185 187 187 189 194 200 213 227 243 262 275 286 306 319 328 331 330 329 329 321 309 294 243 168 160 141 111 50 19 12 14 344 301 278 297 322 225 166 70 51 60 18 336 296 282 243 204 79 87 68 96 95 85 122 125 122 82 288 292 13 1 282 225 225 252 156 144 129 116 304 305 303 306 327
200 201 201 202 202 201 201 203 205 202 202 205 204 202 201 201 202 203 207 216 225 237 252 265 277 292 308 320 329 333 333 331 328 302 295 222 172 163 160 151 102 26 10 10 7 320 267 260 252 269 252 204 69 29 131 358 322 330 287 254 95 87 95 89 100 90 67 86 123 141 93 284 282 312 302 299 284 259 253 117 147 121 88 337 305 296 303 344
209 211 212 212 211 211 210 209 213 212 213 214 214 214 213 214 214 214 217 225 232 241 254 264 279 294 306 320 326 334 329 316 282 240 230 169 168 165 166 168 34 358 358 5 5 354 229 243 243 283 262 219 100 252 335 14 334 314 303 354 91 115 134 125 120 89 77 62 337 149 260 269 251 290 294 297 289 256 93 62 84 79 46 293 288 271 253 8
222 225 225 225 223 223 221 217 218 219 220 220 221 222 221 223 223 225 228 234 241 247 258 269 281 295 306 317 321 333 321 296 147 182 192 171 172 173 183 225 307 327 343 356 1 358 31 203 239 242 260 240 147 229 90 40 320 267 27 47 90 129 145 129 127 89 85 35 275 232 253 266 240 274 275 269 283 292 83 349 257 270 267 261 264 224 215 215
237 237 236 238 235 233 232 228 226 225 226 227 229 228 228 229 230 234 238 243 250 256 265 275 285 295 305 313 316 322 303 297 35 186 193 183 187 192 224 270 296 310 329 344 356 350 14 217 241 241 269 270 257 283 78 68 301 279 119 97 102 52 23 124 147 181 164 244 236 242 264 294 268 261 250 253 278 297 304 278 251 252 242 235 225 201 239 237
244 245 246 247 244 242 239 238 235 233 232 233 235 237 238 238 240 243 246 250 256 263 269 278 287 297 306 309 314 312 284 287 291 235 209 204 212 231 260 276 289 300 319 336 347 324 284 241 251 262 272 262 246 99 84 101 267 287 168 138 139 104 266 147 164 202 210 235 241 261 281 265 257 252 219 217 242 252 272 285 225 216 200 205 231 255 283 267
247 249 252 252 252 249 245 244 242 241 238 237 240 240 244 246 248 250 252 257 260 266 272 278 286 297 302 304 315 302 264 254 255 245 233 232 241 257 267 273 281 293 308 311 285 277 249 247 262 269 270 281 23 142 96 261 228 262 297 136 159 219 235 220 208 225 224 236 244 247 258 254 246 241 216 191 200 238 243 221 174 152 151 207 265 270 262 260
250 253 255 256 256 253 249 247 244 245 242 240 243 242 245 247 249 252 254 260 263 269 274 278 286 291 293 297 303 289 255 238 252 252 243 245 253 260 264 268 276 287 297 294 260 241 234 255 257 262 297 4 309 226 143 265 230 37 23 137 219 232 232 236 242 242 230 232 226 226 245 243 218 213 211 172 191 221 209 203 190 156 206 245 260 260 250 248
252 254 257 259 260 258 254 249 246 247 245 243 244 244 246 247 249 252 255 261 264 269 273 277 282 282 285 284 266 267 247 244 264 258 252 255 254 257 259 261 269 276 282 284 254 219 234 254 223 241 287 286 224 186 202 272 6 45 338 275 261 254 244 233 243 247 237 233 216 227 250 215 174 210 209 160 193 209 179 201 213 209 232 240 244 244 240 238
255 257 259 262 265 264 259 254 249 247 246 245 245 246 247 249 251 253 255 260 263 267 271 272 276 274 278 268 247 255 253 257 272 268 262 261 251 251 252 252 257 251 245 265 252 220 227 234 211 236 261 188 170 167 213 272 26 0 310 285 255 244 242 226 234 240 229 232 211 224 248 168 171 220 175 148 185 187 159 182 211 229 241 246 248 241 237 233
256 259 261 264 267 269 264 257 252 248 246 245 246 247 248 250 251 254 256 258 261 264 265 267 270 269 272 262 248 253 261 266 272 268 260 256 249 245 243 243 239 232 225 245 256 241 233 221 199 234 280 269 199 173 175 153 356 307 286 288 268 248 240 215 209 214 213 209 176 202 234 200 197 197 136 148 176 169 169 191 195 225 248 255 261 258 255 252
256 259 262 264 267 269 266 260 255 251 247 244 245 245 246 249 250 252 253 255 258 259 262 264 267 267 265 259 252 257 264 266 267 261 253 248 248 243 239 238 232 241 246 242 252 246 230 210 192 217 258 275 268 165 129 139 210 279 247 268 290 269 235 180 165 179 199 175 161 194 256 218 188 160 136 153 171 171 187 201 194 216 242 250 250 249 258 254
254 257 261 264 266 268 265 261 256 253 250 246 243 243 244 245 247 249 251 252 254 257 261 261 262 262 258 258 259 261 262 262 260 254 248 244 244 245 242 241 245 257 261 247 240 227 215 197 190 216 229 251 228 157 225 198 211 260 248 234 256 270 204 142 154 181 187 162 169 207 271 233 160 145 147 164 174 182 198 201 197 209 227 245 243 236 248 247
253 256 258 261 264 265 262 257 255 253 251 248 243 241 241 241 243 245 247 249 251 254 256 256 256 254 257 261 262 262 258 253 252 249 246 242 239 243 247 251 258 257 247 228 213 203 200 182 195 222 178 177 180 205 243 230 218 229 252 247 225 239 182 146 159 190 194 156 177 208 266 235 153 152 156 169 182 191 209 210 197 207 219 234 237 229 236 238
252 253 254 257 260 262 259 254 253 251 250 248 244 240 238 239 240 241 245 247 249 250 247 248 242 236 255 258 254 260 255 244 245 245 241 238 235 238 249 253 250 239 222 211 204 198 194 177 201 215 157 182 206 225 252 248 238 215 230 262 246 238 235 170 156 187 205 161 187 207 255 290 148 155 160 168 183 193 211 215 199 209 217 219 224 225 227 229
249 250 251 253 257 259 256 252 250 248 247 245 241 239 237 238 240 242 244 243 245 242 236 239 236 238 249 249 251 255 250 243 242 241 238 237 235 235 240 231 216 214 201 197 196 188 185 177 189 205 204 224 223 223 245 245 246 222 212 249 261 253 252 239 157 156 178 197 218 215 241 271 159 152 168 175 181 194 209 212 204 207 209 216 223 223 219 210
246 245 246 249 253 255 253 249 247 245 244 241 238 237 236 239 242 243 243 241 237 235 240 224 201 249 246 232 233 236 243 245 238 237 235 231 230 222 214 206 194 178 171 184 187 182 187 184 197 232 222 217 216 211 220 238 262 270 247 251 266 249 240 254 228 152 177 206 242 236 240 257 201 157 171 178 181 199 210 205 206 206 203 216 218 214 215 204
244 242 241 244 248 250 247 244 244 243 239 235 234 233 234 240 246 248 244 232 210 198 247 210 196 220 264 218 223 229 241 244 229 229 227 222 218 205 196 192 176 172 178 185 183 185 193 187 200 235 228 212 211 211 224 247 276 297 289 283 283 265 253 262 177 126 187 228 248 251 253 259 239 177 170 177 182 198 208 197 202 209 206 211 207 211 210 197
243 240 238 240 243 244 243 240 240 240 234 230 224 220 225 225 235 246 232 227 223 222 242 217 207 230 263 236 230 228 231 228 217 217 220 217 200 183 180 172 168 192 211 206 184 177 194 209 214 224 230 227 219 219 233 258 289 296 286 275 272 267 269 270 131 117 146 250 255 256 259 261 260 225 175 171 179 194 204 199 203 205 202 206 203 206 194 196
241 238 235 236 238 239 238 236 235 234 230 225 212 203 207 210 217 221 209 233 243 239 241 236 223 229 235 241 238 220 205 206 212 213 214 203 184 176 177 175 180 206 212 203 165 143 192 222 229 231 239 246 236 227 234 252 260 263 268 266 261 256 264 266 140 126 144 242 263 263 263 258 262 255 179 164 182 199 204 203 205 202 193 197 197 192 188 206
239 235 232 232 232 234 235 231 231 231 226 220 210 205 210 216 221 229 240 260 260 247 242 238 234 235 234 237 238 225 206 195 207 215 208 187 181 190 181 181 205 210 182 173 156 175 212 230 235 237 236 191 213 231 234 245 250 254 252 254 259 255 265 257 153 137 161 238 270 272 270 263 264 255 178 174 195 193 194 194 191 191 188 192 190 184 184 192
238 232 228 229 229 231 233 229 228 228 223 218 214 214 218 225 228 239 259 277 270 249 241 238 236 234 230 232 234 223 211 210 212 212 205 185 184 201 190 186 216 211 176 187 206 218 224 236 235 224 186 169 208 213 223 241 243 242 237 244 252 246 260 258 173 140 183 231 278 292 281 271 267 244 172 179 192 168 167 175 171 180 183 186 184 178 176 173
236 229 227 226 226 227 229 229 225 225 224 222 221 219 221 228 231 241 256 268 270 243 235 238 235 229 222 227 232 219 213 226 222 208 205 193 181 195 201 204 220 218 202 206 215 230 239 250 190 193 189 211 224 208 210 232 239 231 227 234 250 249 248 256 261 82 235 233 240 270 281 271 255 234 197 161 168 171 174 180 184 188 183 181 182 176 168 166
231 227 226 225 225 223 227 231 222 221 224 225 226 221 218 221 224 238 260 267 260 224 224 234 231 229 222 221 225 211 212 230 222 210 207 197 183 181 199 211 220 225 219 215 221 238 240 151 131 179 187 209 221 217 207 217 247 243 224 223 242 260 262 266 282 315 285 261 197 214 271 278 245 228 201 149 173 194 182 188 193 188 186 185 184 179 172 170
232 224 223 223 221 216 224 233 226 222 223 227 229 219 212 211 207 220 221 277 261 197 177 208 212 219 214 211 203 186 215 229 211 213 208 197 192 186 191 200 209 238 230 217 229 250 224 138 153 182 184 199 215 231 212 204 243 260 235 213 232 258 266 266 269 254 274 285 146 183 260 278 275 227 168 148 194 195 183 198 194 184 184 182 179 178 177 175
233 223 221 219 210 208 216 224 224 216 214 228 230 211 202 196 176 164 165 272 259 166 145 173 186 188 189 193 184 174 208 178 180 206 200 194 196 193 206 195 181 232 223 190 227 226 154 165 179 184 197 209 215 235 213 192 229 257 33 115 214 247 257 252 252 239 260 289 210 193 235 274 277 239 149 161 195 194 195 206 195 186 184 178 175 174 175 177
234 222 220 216 210 212 214 215 219 212 210 227 223 197 183 173 165 147 185 259 249 130 142 160 166 172 162 168 175 172 124 136 155 199 188 190 191 186 220 217 205 212 180 182 223 198 147 180 188 189 203 217 217 238 191 187 223 247 81 72 141 240 262 247 242 242 257 278 252 206 191 252 267 216 150 173 200 210 205 198 193 189 183 177 176 172 171 175
234 224 219 215 213 216 215 215 217 216 214 211 192 182 167 159 163 153 236 247 173 111 132 147 150 159 149 156 175 170 108 129 108 173 175 186 185 175 228 226 233 224 188 206 235 310 73 187 205 202 211 220 190 55 96 196 219 146 121 98 93 107 233 218 239 249 249 253 254 223 186 224 272 230 170 176 214 225 205 186 187 184 180 179 176 172 172 175
234 227 218 211 207 209 216 219 220 224 212 184 173 169 158 157 164 184 221 230 182 118 110 142 152 151 150 155 181 189 158 103 88 136 154 179 185 189 231 191 230 235 192 223 249 239 90 68 321 224 221 196 112 70 31 30 132 139 146 126 125 159 156 194 233 240 255 252 245 225 204 214 271 257 193 182 209 215 185 169 176 177 177 178 177 174 174 177
232 228 218 210 207 207 212 216 220 224 206 176 169 162 157 162 176 205 214 245 5 140 124 148 149 147 161 164 175 188 183 144 133 148 151 152 179 195 187 170 197 217 212 234 240 213 167 171 186 178 159 110 111 97 48 48 129 158 172 167 170 185 170 211 218 199 248 255 233 213 206 209 232 251 194 136 133 179 172 167 172 174 176 177 177 176 176 180
228 226 219 214 211 210 213 215 216 213 199 179 168 166 165 168 222 227 205 82 74 185 152 155 159 164 176 177 169 171 170 164 163 171 173 166 181 192 195 194 173 184 230 223 210 206 206 207 180 138 161 175 165 139 103 96 189 193 189 180 195 211 197 221 213 201 237 244 108 95 182 215 235 249 240 172 127 151 165 170 174 172 173 176 176 174 176 181
229 224 217 212 211 212 215 217 214 203 194 178 169 173 180 187 211 224 203 161 182 162 127 145 165 174 177 179 173 158 162 176 172 179 186 181 193 200 205 210 193 201 246 200 191 192 204 210 182 164 184 195 191 182 169 173 185 193 190 183 197 212 221 233 219 220 236 214 89 104 165 235 254 253 242 213 124 113 108 149 173 172 172 174 172 171 177 182
227 224 218 212 211 213 218 220 213 202 189 174 170 179 195 213 220 215 204 204 192 91 110 138 151 164 179 185 168 158 164 179 171 173 181 184 201 207 205 212 209 217 248 187 197 196 218 246 183 179 170 177 192 212 206 173 174 195 198 197 209 215 230 239 226 236 241 142 125 157 172 218 215 177 201 122 93 97 94 120 162 168 169 167 165 171 180 183
223 224 221 217 213 213 221 222 209 195 183 173 173 187 191 214 227 211 202 196 161 127 127 137 142 159 190 194 163 172 190 197 174 176 187 192 207 207 200 206 205 205 203 207 205 191 229 257 165 159 139 163 184 216 203 165 170 193 197 210 222 233 249 262 273 282 359 356 206 186 219 247 195 114 105 114 117 128 124 130 155 163 164 162 163 173 182 185
221 222 222 222 217 211 217 217 202 189 185 178 176 201 202 217 222 190 192 188 170 143 131 143 158 175 194 191 176 188 203 167 171 180 204 207 222 221 210 203 196 197 198 197 187 183 223 258 135 132 131 168 184 196 178 177 173 172 191 208 207 336 299 258 218 99 79 276 244 175 221 260 223 193 150 144 155 148 146 155 163 165 165 166 168 175 184 188
218 221 221 222 221 215 213 212 203 192 188 187 193 204 209 221 214 183 193 188 159 139 143 173 187 188 194 192 186 185 180 157 173 186 193 190 223 221 211 210 196 199 204 203 221 213 216 263 156 169 175 163 19 43 167 292 47 153 193 188 123 34 322 264 253 225 215 258 249 182 215 224 210 214 150 155 178 169 168 171 168 169 170 173 175 179 187 190
216 221 221 223 222 217 213 212 204 191 188 195 217 214 221 222 215 212 193 177 151 148 177 210 192 187 196 196 184 175 174 170 175 188 185 180 217 196 187 202 201 201 206 208 235 231 205 237 196 174 177 133 86 174 188 229 253 218 247 167 141 222 225 198 229 247 232 245 255 217 218 218 215 207 156 177 194 181 173 172 174 177 178 181 180 179 187 191
213 214 220 224 221 216 214 210 198 187 187 206 214 215 227 220 214 214 194 176 165 171 199 213 202 201 203 203 178 160 175 183 168 178 196 191 203 180 175 187 200 202 201 198 209 208 196 227 224 96 68 132 148 202 198 189 190 309 290 199 184 250 230 202 212 237 239 244 260 240 215 217 220 201 178 187 193 178 171 174 186 186 182 184 181 179 187 193
211 206 224 225 218 214 212 204 192 183 189 215 211 222 235 223 214 211 212 212 195 193 212 215 210 210 207 210 192 157 179 197 172 180 207 186 180 179 180 186 192 196 195 192 202 205 181 215 225 133 101 159 179 205 204 194 183 186 202 200 193 186 221 268 236 228 245 253 256 257 253 238 192 191 190 190 184 173 172 177 186 187 185 186 183 184 190 194
214 207 228 219 215 209 200 194 189 185 197 212 219 233 233 230 226 211 213 223 226 229 236 228 218 215 200 204 201 161 164 201 189 193 211 191 199 202 182 188 186 168 175 191 206 204 187 203 209 173 173 204 207 194 206 210 193 194 200 200 199 192 184 225 229 211 220 252 255 268 275 269 109 59 187 167 166 169 173 174 178 184 187 187 187 191 195 196
214 223 222 209 210 201 190 184 187 184 192 210 215 224 221 222 230 216 203 211 230 244 238 236 229 223 204 197 201 168 157 191 199 201 217 205 212 215 179 185 181 157 154 181 200 188 145 195 211 201 190 198 154 84 64 350 276 246 236 218 209 202 195 210 223 191 179 227 315 305 278 281 80 29 35 56 44 99 163 170 173 181 185 188 190 193 196 199
211 225 214 201 205 197 186 184 200 184 201 215 213 222 223 213 221 213 198 199 210 223 217 222 229 229 220 192 188 175 175 195 199 198 214 215 211 199 158 172 169 159 161 175 176 151 89 157 207 207 191 143 116 113 100 50 281 257 248 229 218 216 209 214 245 153 184 205 175 229 254 256 68 20 26 47 34 42 155 174 171 175 182 188 191 189 195 201
213 211 189 186 196 194 187 190 195 190 209 207 206 222 225 222 218 208 199 196 194 195 210 219 217 222 226 184 183 186 184 200 210 201 206 212 195 97 134 168 169 168 180 173 151 165 166 181 190 200 225 211 185 188 193 191 205 224 226 216 218 220 209 191 50 259 239 213 183 219 248 223 105 11 359 65 150 138 193 188 177 176 179 184 187 188 195 201
215 201 188 186 191 191 192 199 194 195 206 197 200 215 217 227 221 212 209 200 197 195 204 216 207 199 202 185 200 203 196 207 220 206 202 209 177 74 148 181 175 178 195 157 139 163 176 184 176 193 218 216 210 218 210 186 177 206 217 208 208 207 199 190 184 224 240 207 178 219 243 196 104 181 242 217 204 203 192 190 191 185 182 187 191 194 198 202
192 194 213 204 202 202 207 206 194 194 201 196 201 211 213 222 218 210 210 207 207 207 205 212 195 192 188 186 200 211 211 215 214 175 197 196 157 58 228 193 187 190 190 164 156 158 170 225 195 205 221 215 204 259 179 131 154 194 205 199 201 202 201 204 215 224 225 184 208 225 230 237 206 190 217 217 201 210 199 184 194 195 189 191 196 199 201 204
194 195 182 194 228 231 250 238 200 197 197 196 197 201 208 216 217 199 205 211 208 204 208 20 178 197 194 191 204 215 207 207 184 161 198 185 128 73 79 178 205 206 179 164 169 165 169 227 210 217 232 232 123 55 357 151 181 202 201 197 201 202 201 205 218 220 169 166 240 225 187 228 228 185 201 212 195 211 211 190 198 201 193 189 194 199 202 206
196 196 185 184 199 236 230 232 213 207 201 196 202 208 206 213 216 204 203 213 207 198 200 228 212 213 205 194 201 207 194 199 206 201 194 148 128 121 104 75 242 202 172 166 183 172 182 227 216 215 233 240 212 127 265 240 219 220 205 201 200 198 200 205 217 221 191 209 247 227 172 218 227 185 196 201 189 204 206 196 198 195 193 193 193 197 202 207
181 164 181 190 190 205 227 219 195 214 210 196 206 222 212 211 216 213 197 192 209 201 197 213 220 215 210 204 200 195 191 194 205 207 190 161 164 157 145 185 220 192 169 164 195 176 189 228 213 195 231 241 227 199 197 187 253 276 231 217 206 203 206 209 217 223 219 232 250 249 205 236 236 195 197 186 179 193 188 194 200 190 195 197 196 200 204 208
190 187 175 181 195 190 205 206 186 221 219 201 208 221 217 216 219 216 196 181 205 205 198 216 224 212 205 212 211 211 208 201 206 206 174 160 176 184 183 185 164 165 172 177 184 175 201 218 149 135 231 241 219 189 177 189 222 278 261 246 226 206 203 210 222 224 226 241 249 253 263 260 228 180 172 140 153 170 172 196 207 207 208 203 202 207 211 215
204 198 182 167 187 199 186 193 199 220 229 209 212 216 214 221 220 214 206 200 216 213 199 216 227 218 207 218 220 227 226 213 218 203 175 177 189 192 197 177 144 154 176 185 173 168 195 209 94 137 223 235 207 185 188 177 71 274 259 244 220 191 178 199 219 217 214 231 240 243 253 248 179 136 112 126 161 174 189 203 207 215 220 216 214 216 221 224
206 197 187 176 175 186 186 189 199 215 226 208 214 217 216 225 220 207 214 236 228 231 226 226 229 217 211 222 223 225 211 166 125 125 154 167 162 161 170 164 160 167 172 173 171 168 185 188 153 179 210 232 204 176 169 133 114 250 251 225 193 194 202 206 221 222 216 221 227 232 243 244 144 148 174 189 182 187 206 214 218 223 224 225 226 228 232 231
Height
1532 1532 1533 1533 1534 1534 1535 1535 1535 1535 1536 1536 1536 1537 1537 1538 1538 1538 1538 1539 1539 1539 1539 1539 1539 1539 1539 1538 1538 1538 1537 1537 1537 1537 1537 1537 1537 1537 1538 1538 1538 1539 1539 1538 1538 1538 1538 1538 1538 1537 1537 1537 1537 1537 1537 1536 1536 1535 1533 1534 1534 1533 1535 1535 1534 1536 1537 1538 1541 1543 1544 1544 1543 1544 1546 1546 1545 1546 1545 1546 1547 1546 1546 1547 1547 1547 1547 1546
1532 1532 1533 1533 1534 1534 1534 1535 1535 1535 1535 1536 1536 1537 1537 1537 1538 1538 1538 1539 1539 1539 1539 1538 1538 1538 1538 1538 1538 1537 1537 1536 1536 1536 1536 1536 1537 1537 1538 1538 1539 1539 1539 1539 1539 1539 1539 1539 1538 1538 1538 1537 1537 1537 1537 1537 1536 1535 1533 1533 1533 1533 1535 1535 1535 1536 1538 1539 1541 1543 1544 1544 1544 1544 1546 1545 1543 1544 1543 1544 1546 1546 1547 1547 1547 1547 1546 1546
1532 1532 1533 1533 1533 1533 1534 1534 1534 1535 1535 1535 1536 1536 1537 1537 1538 1538 1538 1538 1538 1539 1538 1538 1538 1538 1538 1538 1537 1537 1536 1536 1536 1536 1535 1536 1537 1537 1538 1538 1539 1539 1539 1539 1539 1539 1539 1539 1538 1538 1538 1537 1537 1538 1537 1537 1536 1535 1534 1533 1534 1535 1536 1537 1537 1539 1540 1541 1542 1543 1544 1544 1544 1545 1545 1544 1542 1541 1541 1543 1545 1546 1547 1547 1546 1546 1546 1546
1531 1532 1532 1532 1533 1533 1533 1534 1534 1534 1535 1535 1536 1536 1537 1537 1537 1538 1538 1538 1538 1538 1538 1538 1538 1538 1538 1537 1537 1537 1536 1535 1535 1536 1536 1536 1537 1537 1538 1538 1539 1539 1539 1539 1539 1538 1538 1538 1538 1538 1538 1536 1537 1537 1536 1537 1537 1535 1535 1534 1534 1536 1537 1538 1539 1540 1542 1543 1543 1544 1545 1544 1544 1544 1544 1544 1542 1539 1541 1544 1545 1546 1546 1546 1546 1546 1546 1546
1530 1531 1531 1532 1532 1532 1533 1533 1533 1534 1534 1535 1535 1536 1536 1536 1537 1537 1537 1537 1538 1538 1538 1538 1538 1538 1537 1537 1537 1536 1536 1535 1535 1536 1536 1537 1537 1538 1538 1538 1538 1538 1539 1539 1538 1538 1538 1539 1539 1539 1537 1536 1536 1537 1537 1538 1537 1536 1536 1536 1536 1537 1537 1539 1541 1542 1543 1543 1544 1544 1544 1544 1544 1544 1544 1544 1542 1540 1543 1545 1544 1545 1545 1545 1545 1545 1545 1546
1529 1530 1530 1531 1531 1532 1532 1533 1533 1533 1534 1534 1535 1535 1535 1536 1536 1536 1537 1537 1537 1537 1537 1537 1537 1537 1537 1537 1537 1537 1537 1536 1536 1536 1537 1537 1538 1538 1538 1538 1538 1538 1538 1538 1539 1539 1538 1539 1539 1538 1537 1535 1536 1536 1538 1539 1538 1537 1536 1537 1538 1539 1539 1540 1542 1542 1543 1544 1544 1544 1544 1544 1544 1544 1543 1544 1543 1542 1544 1544 1543 1544 1544 1545 1545 1545 1545 1545
1528 1529 1529 1530 1530 1531 1531 1532 1532 1533 1533 1533 1534 1534 1534 1535 1535 1535 1536 1536 1536 1537 1537 1537 1537 1537 1537 1537 1537 1537 1537 1536 1536 1537 1537 1538 1538 1538 1538 1538 1538 1538 1538 1539 1539 1539 1539 1539 1538 1538 1537 1536 1536 1537 1538 1539 1538 1537 1536 1538 1539 1540 1540 1541 1542 1543 1544 1544 1544 1544 1544 1544 1544 1542 1542 1543 1543 1542 1543 1543 1543 1543 1544 1544 1544 1544 1545 1545
1527 1528 1528 1529 1529 1530 1531 1531 1531 1532 1532 1532 1533 1533 1533 1534 1534 1535 1535 1535 1536 1536 1536 1536 1536 1536 1536 1536 1537 1537 1536 1536 1536 1537 1537 1537 1537 1537 1538 1538 1538 1538 1538 1538 1539 1539 1539 1539 1538 1538 1537 1536 1537 1537 1539 1539 1537 1537 1537 1538 1540 1540 1541 1541 1542 1543 1543 1544 1544 1544 1544 1543 1542 1542 1542 1542 1542 1542 1542 1542 1543 1543 1543 1544 1544 1544 1545 1545
1526 1526 1527 1528 1528 1529 1529 1530 1530 1530 1531 1531 1531 1532 1532 1533 1533 1534 1534 1534 1535 1535 1535 1535 1535 1536 1536 1536 1537 1536 1535 1535 1536 1536 1536 1537 1537 1537 1537 1537 1537 1537 1538 1538 1538 1539 1539 1539 1539 1538 1537 1537 1538 1537 1539 1539 1537 1538 1538 1539 1540 1540 1540 1541 1541 1541 1542 1542 1543 1543 1542 1541 1542 1542 1541 1542 1542 1541 1542 1542 1543 1543 1544 1544 1544 1544 1544 1545
1524 1525 1526 1526 1527 1528 1528 1528 1529 1529 1530 1530 1530 1531 1531 1531 1532 1533 1533 1533 1534 1534 1534 1535 1535 1535 1535 1536 1537 1535 1533 1534 1535 1535 1536 1536 1536 1536 1536 1536 1537 1537 1537 1537 1538 1538 1539 1539 1539 1539 1538 1538 1538 1538 1539 1539 1539 1539 1540 1540 1539 1539 1539 1540 1539 1539 1540 1541 1541 1541 1539 1539 1541 1541 1539 1540 1541 1541 1542 1542 1543 1543 1544 1544 1544 1544 1544 1544
1522 1523 1524 1525 1526 1526 1526 1527 1527 1528 1528 1529 1529 1530 1530 1530 1531 1531 1532 1532 1533 1533 1533 1534 1534 1534 1535 1535 1536 1533 1532 1534 1534 1535 1535 1535 1535 1535 1535 1536 1536 1537 1537 1537 1537 1538 1538 1538 1539 1539 1538 1537 1538 1539 1539 1539 1540 1540 1540 1539 1537 1537 1537 1537 1537 1538 1539 1539 1539 1540 1538 1539 1541 1539 1537 1539 1540 1540 1542 1542 1543 1543 1543 1543 1543 1544 1543 1543
1520 1521 1522 1523 1524 1524 1525 1525 1526 1526 1527 1527 1528 1528 1529 1529 1530 1530 1531 1531 1532 1532 1532 1533 1533 1534 1534 1534 1534 1532 1532 1533 1533 1534 1534 1534 1535 1535 1535 1535 1536 1536 1536 1537 1537 1537 1538 1538 1539 1539 1538 1537 1537 1538 1539 1540 1540 1540 1540 1538 1535 1534 1534 1534 1535 1537 1537 1537 1538 1539 1539 1538 1537 1537 1536 1538 1539 1540 1542 1542 1543 1543 1543 1543 1543 1543 1543 1542
1518 1519 1520 1521 1522 1522 1523 1524 1524 1525 1525 1526 1526 1527 1528 1528 1529 1529 1529 1530 1530 1531 1531 1532 1532 1533 1533 1532 1531 1531 1532 1532 1532 1533 1533 1534 1534 1534 1535 1535 1535 1536 1536 1537 1537 1537 1537 1537 1538 1539 1539 1538 1537 1539 1540 1540 1541 1540 1539 1538 1536 1533 1530 1530 1534 1536 1536 1537 1537 1539 1538 1530 1529 1534 1536 1537 1539 1540 1541 1542 1542 1542 1542 1542 1542 1542 1542 1542
1516 1517 1518 1519 1520 1521 1521 1522 1523 1523 1524 1524 1525 1526 1526 1527 1527 1528 1528 1529 1529 1530 1530 1531 1531 1532 1532 1531 1529 1530 1530 1530 1531 1531 1532 1532 1533 1533 1534 1534 1534 1535 1535 1536 1536 1536 1537 1537 1538 1538 1539 1539 1538 1540 1539 1539 1540 1538 1537 1537 1536 1534 1530 1529 1533 1533 1534 1536 1535 1539 1538 1527 1527 1534 1536 1537 1538 1539 1540 1541 1542 1542 1541 1541 1541 1542 1541 1541
1514 1515 1516 1517 1518 1519 1520 1520 1521 1522 1523 1523 1524 1524 1525 1525 1526 1527 1527 1528 1528 1529 1529 1530 1530 1531 1531 1529 1527 1528 1528 1529 1529 1529 1530 1531 1532 1532 1532 1533 1534 1534 1534 1535 1535 1536 1537 1537 1538 1538 1538 1539 1539 1540 1537 1536 1535 1535 1539 1536 1532 1534 1531 1529 1532 1531 1532 1535 1535 1538 1535 1526 1528 1534 1534 1536 1537 1538 1540 1540 1541 1541 1540 1541 1540 1541 1541 1540
1512 1513 1514 1515 1516 1517 1518 1519 1519 1520 1521 1522 1523 1523 1524 1524 1525 1525 1526 1526 1527 1528 1528 1529 1529 1530 1530 1526 1525 1526 1526 1526 1527 1528 1529 1529 1531 1531 1531 1532 1533 1533 1534 1534 1535 1536 1537 1537 1538 1538 1539 1539 1538 1538 1536 1536 1534 1532 1537 1535 1529 1530 1529 1527 1531 1531 1530 1533 1533 1535 1532 1525 1527 1533 1534 1535 1536 1537 1538 1538 1539 1539 1539 1540 1540 1540 1540 1540
1510 1511 1512 1513 1514 1515 1516 1517 1518 1519 1520 1521 1522 1522 1523 1523 1524 1525 1525 1526 1526 1526 1528 1528 1528 1529 1527 1524 1524 1523 1523 1524 1525 1526 1527 1528 1529 1530 1531 1532 1532 1533 1533 1534 1535 1536 1537 1538 1538 1537 1537 1537 1535 1535 1540 1542 1536 1530 1531 1533 1528 1527 1528 1528 1529 1530 1531 1531 1531 1531 1530 1526 1526 1530 1533 1534 1535 1536 1537 1537 1538 1538 1539 1539 1539 1539 1539 1540
1507 1509 1510 1511 1512 1513 1515 1516 1516 1517 1518 1519 1521 1521 1522 1522 1523 1523 1524 1524 1525 1526 1527 1527 1528 1529 1524 1521 1522 1521 1521 1523 1524 1525 1526 1527 1528 1529 1530 1531 1532 1533 1534 1535 1535 1536 1537 1537 1538 1536 1535 1535 1533 1534 1541 1539 1530 1526 1528 1530 1528 1525 1528 1527 1527 1528 1529 1530 1530 1528 1528 1525 1524 1528 1531 1531 1533 1534 1535 1536 1537 1537 1538 1538 1538 1539 1539 1539
1505 1506 1508 1509 1510 1512 1513 1514 1515 1516 1517 1518 1520 1520 1521 1522 1522 1522 1523 1523 1524 1524 1524 1522 1523 1524 1520 1517 1519 1519 1520 1522 1522 1523 1524 1525 1526 1528 1529 1531 1532 1533 1533 1534 1533 1535 1535 1536 1538 1537 1533 1532 1531 1530 1531 1527 1523 1525 1526 1528 1529 1527 1526 1524 1524 1528 1528 1530 1529 1527 1526 1523 1522 1525 1528 1530 1531 1533 1533 1534 1535 1536 1536 1537 1538 1538 1538 1539
1502 1504 1506 1506 1508 1509 1511 1513 1514 1514 1516 1517 1518 1520 1521 1521 1522 1520 1520 1520 1519 1518 1518 1517 1517 1518 1516 1516 1518 1518 1519 1521 1521 1522 1523 1524 1526 1528 1529 1531 1532 1532 1532 1531 1532 1533 1534 1535 1535 1532 1527 1525 1526 1525 1524 1523 1524 1527 1528 1530 1530 1530 1527 1522 1524 1528 1529 1531 1528 1525 1524 1521 1519 1520 1524 1528 1529 1531 1532 1532 1534 1534 1535 1536 1537 1538 1538 1538
1500 1502 1503 1504 1506 1507 1509 1511 1512 1513 1514 1515 1517 1518 1518 1519 1518 1517 1516 1515 1514 1514 1515 1515 1516 1516 1515 1516 1516 1517 1519 1520 1520 1521 1522 1523 1525 1527 1528 1529 1530 1530 1529 1529 1531 1532 1534 1534 1528 1523 1521 1521 1522 1522 1522 1524 1527 1529 1530 1531 1530 1530 1526 1521 1525 1529 1530 1532 1528 1523 1523 1521 1519 1518 1521 1525 1527 1528 1529 1530 1531 1532 1534 1535 1535 1537 1537 1536
1498 1499 1500 1503 1503 1505 1507 1509 1510 1511 1512 1513 1514 1515 1516 1516 1516 1515 1515 1513 1511 1511 1512 1512 1513 1514 1514 1514 1515 1517 1518 1518 1519 1519 1520 1523 1524 1525 1526 1527 1527 1526 1526 1528 1531 1533 1534 1530 1522 1519 1520 1521 1522 1523 1524 1526 1528 1530 1530 1532 1531 1528 1524 1522 1525 1529 1531 1532 1528 1523 1524 1521 1517 1516 1519 1523 1523 1524 1526 1527 1529 1530 1532 1533 1534 1535 1535 1535
1495 1496 1499 1500 1501 1504 1505 1507 1508 1509 1510 1511 1512 1513 1514 1515 1515 1515 1516 1514 1510 1508 1508 1508 1509 1510 1511 1512 1513 1515 1516 1516 1517 1517 1518 1521 1522 1523 1524 1524 1524 1523 1525 1527 1527 1530 1529 1523 1517 1518 1520 1522 1524 1525 1527 1528 1529 1529 1530 1532 1531 1526 1527 1527 1527 1530 1531 1531 1528 1526 1526 1520 1515 1515 1518 1521 1521 1522 1525 1526 1527 1529 1530 1532 1532 1533 1534 1534
1493 1495 1497 1498 1500 1502 1502 1506 1506 1506 1508 1509 1510 1512 1513 1515 1515 1515 1515 1513 1507 1503 1503 1504 1505 1506 1507 1508 1509 1512 1514 1513 1514 1514 1515 1518 1520 1522 1521 1521 1521 1520 1521 1522 1522 1523 1520 1516 1516 1518 1520 1522 1525 1526 1527 1529 1528 1527 1527 1529 1527 1524 1527 1527 1526 1529 1529 1528 1527 1529 1529 1518 1510 1510 1513 1519 1522 1522 1524 1525 1526 1527 1528 1529 1530 1531 1533 1533
1490 1493 1495 1496 1499 1500 1502 1504 1502 1504 1506 1506 1508 1511 1513 1514 1514 1516 1516 1513 1504 1498 1500 1500 1501 1501 1501 1504 1506 1509 1511 1511 1510 1511 1512 1515 1517 1519 1519 1519 1519 1518 1518 1519 1520 1518 1515 1516 1517 1519 1521 1522 1524 1525 1526 1528 1527 1525 1523 1523 1524 1523 1524 1525 1527 1531 1532 1529 1526 1529 1533 1516 1500 1499 1506 1516 1521 1521 1523 1523 1523 1524 1525 1527 1528 1529 1531 1532
1489 1491 1492 1495 1497 1499 1502 1501 1500 1504 1504 1504 1507 1509 1513 1513 1515 1517 1515 1514 1503 1491 1495 1497 1495 1496 1496 1499 1503 1508 1511 1506 1505 1508 1509 1513 1515 1516 1518 1518 1517 1516 1515 1516 1519 1516 1514 1517 1518 1519 1522 1522 1524 1524 1522 1525 1527 1526 1522 1521 1523 1524 1526 1527 1529 1535 1535 1530 1526 1530 1533 1522 1504 1498 1503 1513 1518 1517 1521 1521 1520 1522 1523 1524 1526 1528 1529 1530
1487 1489 1491 1493 1495 1497 1498 1498 1500 1502 1502 1504 1505 1508 1512 1512 1516 1516 1515 1521 1503 1480 1485 1491 1490 1491 1492 1495 1498 1504 1507 1501 1502 1507 1507 1510 1512 1514 1515 1513 1515 1517 1514 1517 1521 1515 1512 1517 1519 1519 1521 1522 1524 1522 1519 1522 1526 1527 1525 1525 1525 1526 1528 1529 1530 1535 1531 1526 1528 1528 1530 1530 1517 1505 1505 1511 1514 1516 1518 1520 1519 1521 1522 1523 1525 1527 1528 1530
1484 1486 1489 1491 1493 1494 1495 1497 1499 1499 1501 1504 1504 1508 1510 1511 1517 1513 1518 1526 1497 1469 1478 1486 1486 1488 1489 1494 1496 1498 1500 1496 1500 1504 1504 1508 1510 1512 1513 1510 1512 1514 1513 1518 1520 1513 1510 1516 1517 1517 1521 1521 1520 1518 1517 1520 1523 1526 1528 1527 1526 1527 1529 1528 1530 1533 1529 1531 1533 1525 1527 1533 1519 1504 1506 1510 1510 1511 1512 1515 1517 1519 1521 1522 1524 1526 1527 1529
1482 1484 1486 1489 1491 1492 1494 1496 1497 1497 1501 1503 1505 1508 1508 1513 1516 1510 1522 1521 1482 1466 1479 1481 1485 1488 1488 1494 1495 1495 1497 1497 1499 1501 1503 1507 1508 1510 1512 1510 1510 1512 1513 1514 1513 1512 1513 1516 1515 1515 1518 1517 1517 1519 1519 1520 1522 1525 1528 1527 1528 1530 1529 1530 1532 1531 1531 1536 1534 1523 1524 1530 1515 1497 1503 1511 1508 1503 1503 1507 1513 1515 1518 1520 1522 1525 1526 1528
1479 1481 1483 1487 1488 1490 1492 1493 1494 1497 1500 1503 1505 1507 1509 1513 1512 1515 1528 1508 1468 1468 1481 1478 1483 1487 1487 1493 1495 1495 1497 1497 1499 1502 1506 1508 1508 1510 1510 1511 1512 1511 1513 1514 1512 1513 1515 1516 1516 1516 1516 1514 1517 1522 1523 1523 1523 1525 1527 1527 1530 1531 1530 1532 1530 1530 1536 1534 1525 1517 1516 1524 1520 1497 1490 1500 1499 1492 1494 1502 1508 1511 1515 1518 1520 1523 1525 1526
1476 1477 1480 1482 1483 1485 1487 1488 1491 1496 1500 1502 1504 1507 1510 1511 1511 1517 1514 1484 1463 1473 1479 1479 1483 1483 1484 1488 1490 1494 1496 1498 1499 1501 1504 1506 1508 1510 1510 1512 1513 1515 1517 1516 1514 1514 1515 1517 1515 1515 1515 1516 1518 1522 1525 1526 1525 1526 1526 1527 1531 1532 1533 1535 1532 1536 1542 1529 1516 1514 1512 1518 1522 1500 1483 1487 1489 1486 1490 1496 1502 1507 1511 1514 1518 1520 1523 1525
1472 1474 1476 1478 1480 1482 1482 1483 1488 1495 1500 1500 1503 1505 1506 1512 1516 1507 1488 1471 1470 1471 1469 1476 1481 1480 1483 1483 1485 1491 1493 1496 1498 1498 1500 1503 1505 1506 1505 1505 1507 1514 1517 1513 1513 1514 1513 1512 1511 1513 1515 1515 1517 1521 1527 1528 1527 1526 1525 1527 1533 1533 1536 1537 1533 1535 1533 1522 1517 1519 1517 1517 1511 1494 1483 1485 1487 1488 1489 1492 1497 1502 1506 1511 1514 1518 1520 1523
1468 1471 1473 1474 1476 1478 1479 1481 1488 1495 1497 1498 1503 1502 1504 1512 1505 1485 1473 1469 1468 1464 1464 1472 1475 1477 1481 1482 1485 1489 1491 1494 1495 1495 1497 1498 1501 1501 1500 1499 1498 1504 1505 1503 1510 1514 1512 1509 1510 1513 1513 1512 1511 1514 1521 1525 1525 1524 1521 1524 1529 1530 1535 1536 1529 1525 1520 1518 1521 1521 1521 1519 1504 1488 1482 1483 1487 1490 1491 1493 1495 1498 1502 1507 1511 1515 1518 1521
1464 1467 1469 1470 1472 1475 1476 1480 1486 1491 1494 1497 1501 1501 1505 1503 1481 1465 1467 1465 1462 1465 1467 1469 1473 1478 1480 1480 1483 1484 1489 1494 1492 1494 1496 1497 1499 1498 1497 1497 1495 1497 1499 1501 1504 1507 1509 1505 1502 1505 1505 1504 1505 1504 1506 1511 1517 1518 1512 1515 1519 1517 1520 1522 1518 1513 1511 1517 1525 1526 1521 1509 1497 1489 1485 1486 1491 1492 1493 1494 1496 1498 1502 1506 1510 1514 1516 1519
1459 1462 1465 1466 1468 1470 1472 1476 1482 1487 1491 1492 1495 1497 1497 1486 1465 1458 1462 1459 1461 1467 1468 1469 1474 1479 1480 1479 1481 1481 1484 1490 1491 1494 1495 1493 1494 1492 1490 1491 1492 1494 1498 1502 1499 1498 1502 1496 1490 1496 1497 1497 1501 1501 1500 1506 1514 1515 1510 1513 1515 1508 1506 1513 1518 1515 1515 1518 1521 1523 1513 1491 1483 1487 1488 1491 1493 1492 1495 1495 1496 1499 1502 1506 1509 1511 1514 1517
1454 1457 1460 1460 1460 1463 1466 1471 1476 1481 1484 1486 1489 1488 1477 1461 1452 1452 1452 1452 1457 1463 1468 1473 1474 1477 1478 1478 1481 1481 1480 1484 1489 1492 1492 1491 1489 1486 1483 1483 1486 1488 1489 1492 1491 1492 1497 1495 1493 1499 1498 1498 1501 1500 1501 1504 1508 1511 1512 1512 1510 1505 1505 1513 1522 1523 1524 1520 1506 1505 1504 1488 1483 1486 1485 1490 1492 1492 1496 1495 1496 1499 1501 1504 1507 1509 1512 1514
1449 1451 1452 1451 1452 1457 1461 1465 1470 1475 1478 1479 1476 1470 1458 1448 1446 1447 1446 1447 1451 1454 1462 1468 1468 1469 1470 1472 1476 1480 1480 1482 1487 1488 1488 1490 1486 1480 1480 1479 1480 1482 1481 1483 1485 1484 1488 1493 1497 1500 1499 1501 1502 1501 1502 1503 1503 1507 1511 1507 1505 1510 1510 1511 1517 1518 1520 1515 1496 1491 1494 1488 1485 1485 1484 1488 1490 1490 1494 1494 1495 1497 1499 1502 1504 1506 1510 1512
1443 1446 1445 1443 1446 1452 1456 1461 1464 1468 1472 1472 1468 1460 1451 1446 1446 1446 1445 1445 1447 1451 1456 1458 1458 1458 1460 1463 1467 1473 1477 1479 1483 1485 1483 1485 1479 1469 1474 1478 1476 1477 1478 1482 1486 1483 1482 1490 1497 1500 1500 1502 1503 1503 1504 1504 1503 1505 1505 1501 1503 1512 1512 1510 1515 1514 1512 1511 1496 1485 1485 1482 1478 1477 1479 1483 1482 1485 1489 1492 1494 1494 1495 1499 1501 1504 1508 1510
1438 1441 1437 1435 1442 1447 1452 1457 1458 1461 1464 1465 1466 1457 1445 1442 1445 1445 1446 1445 1445 1449 1451 1449 1450 1452 1453 1455 1457 1467 1474 1471 1475 1480 1476 1477 1473 1464 1466 1472 1472 1474 1476 1480 1484 1482 1482 1487 1494 1501 1502 1502 1504 1504 1502 1502 1504 1506 1505 1501 1500 1504 1503 1501 1503 1501 1501 1503 1494 1485 1484 1477 1466 1462 1467 1471 1471 1476 1483 1487 1489 1489 1491 1494 1497 1500 1503 1505
1433 1434 1428 1429 1437 1442 1448 1454 1453 1454 1455 1457 1459 1451 1441 1441 1445 1445 1445 1445 1444 1445 1445 1443 1445 1449 1449 1449 1451 1460 1468 1466 1467 1472 1469 1467 1467 1463 1463 1465 1468 1471 1474 1478 1480 1480 1483 1485 1489 1500 1505 1502 1500 1496 1492 1491 1496 1502 1503 1501 1500 1501 1501 1500 1496 1491 1494 1497 1491 1487 1481 1467 1456 1455 1458 1460 1463 1469 1474 1479 1483 1485 1487 1490 1493 1495 1497 1500
1429 1428 1422 1423 1431 1436 1443 1448 1445 1445 1449 1453 1452 1446 1441 1442 1442 1442 1445 1446 1445 1442 1442 1442 1442 1443 1446 1448 1447 1451 1462 1465 1464 1466 1465 1461 1460 1459 1458 1459 1462 1467 1473 1480 1480 1478 1481 1482 1484 1496 1502 1496 1490 1487 1487 1487 1488 1491 1492 1491 1491 1493 1497 1502 1498 1489 1491 1492 1487 1487 1481 1463 1457 1460 1459 1459 1462 1464 1468 1473 1477 1481 1484 1487 1489 1491 1493 1496
1425 1422 1417 1419 1424 1430 1437 1438 1435 1439 1444 1443 1440 1438 1440 1441 1440 1441 1442 1445 1446 1443 1442 1442 1440 1440 1441 1443 1444 1446 1455 1462 1462 1462 1460 1455 1452 1452 1453 1455 1458 1461 1467 1474 1474 1472 1475 1478 1480 1486 1489 1488 1487 1488 1490 1491 1489 1489 1488 1485 1485 1486 1488 1493 1492 1487 1491 1492 1487 1491 1487 1468 1462 1465 1464 1464 1466 1465 1468 1471 1474 1478 1481 1484 1486 1488 1491 1493
1418 1416 1416 1417 1418 1423 1431 1431 1430 1434 1435 1432 1433 1436 1438 1438 1439 1439 1439 1441 1443 1442 1442 1442 1439 1439 1439 1439 1442 1444 1448 1454 1456 1455 1454 1451 1450 1450 1451 1454 1457 1459 1463 1467 1469 1471 1476 1479 1481 1482 1482 1484 1487 1488 1490 1492 1492 1491 1487 1484 1483 1480 1479 1481 1482 1483 1487 1487 1487 1493 1488 1470 1465 1468 1468 1469 1469 1469 1470 1471 1473 1477 1479 1482 1485 1487 1490 1492
1414 1415 1416 1417 1416 1417 1420 1421 1424 1428 1427 1429 1434 1436 1436 1435 1435 1435 1435 1435 1437 1439 1440 1439 1437 1438 1438 1438 1440 1441 1444 1448 1450 1449 1448 1448 1449 1452 1453 1454 1455 1457 1459 1462 1463 1467 1473 1476 1480 1485 1486 1487 1489 1490 1490 1491 1492 1486 1481 1481 1480 1477 1478 1481 1483 1485 1484 1478 1480 1486 1477 1464 1466 1470 1469 1470 1470 1470 1471 1471 1472 1475 1477 1480 1483 1485 1488 1490
1415 1414 1414 1414 1414 1412 1410 1410 1415 1421 1423 1427 1432 1432 1433 1432 1430 1430 1432 1432 1433 1435 1435 1435 1434 1435 1438 1439 1440 1439 1438 1440 1443 1446 1447 1448 1450 1453 1454 1454 1455 1456 1457 1459 1460 1463 1468 1470 1472 1478 1479 1477 1476 1474 1471 1473 1479 1480 1476 1476 1476 1476 1478 1479 1482 1486 1482 1474 1474 1475 1466 1461 1467 1470 1468 1469 1470 1469 1470 1471 1472 1474 1476 1478 1480 1482 1485 1486
1413 1413 1413 1412 1409 1408 1407 1407 1410 1416 1420 1425 1428 1427 1428 1428 1425 1427 1430 1431 1432 1432 1431 1432 1433 1434 1438 1440 1440 1439 1437 1436 1441 1445 1446 1447 1451 1454 1455 1455 1456 1457 1457 1459 1461 1464 1468 1467 1464 1463 1460 1457 1458 1458 1454 1456 1466 1471 1471 1472 1472 1472 1474 1477 1479 1478 1473 1473 1471 1463 1459 1463 1467 1468 1468 1467 1468 1468 1469 1470 1472 1473 1474 1476 1477 1479 1482 1484
1408 1408 1409 1409 1407 1406 1406 1407 1409 1410 1413 1418 1420 1419 1421 1423 1423 1426 1428 1427 1427 1429 1431 1432 1432 1432 1434 1435 1436 1437 1436 1438 1442 1444 1443 1445 1451 1455 1456 1456 1457 1458 1458 1459 1460 1463 1467 1465 1459 1457 1455 1451 1454 1458 1456 1455 1458 1460 1463 1467 1469 1469 1472 1476 1474 1466 1466 1472 1465 1453 1457 1464 1462 1463 1465 1464 1465 1467 1466 1468 1470 1471 1472 1474 1475 1478 1480 1482
1403 1403 1403 1404 1405 1405 1404 1404 1406 1406 1407 1413 1415 1414 1417 1419 1420 1422 1423 1423 1424 1426 1429 1432 1430 1427 1426 1427 1430 1433 1436 1440 1442 1441 1441 1446 1452 1456 1458 1458 1458 1457 1458 1459 1459 1460 1463 1459 1454 1456 1456 1452 1455 1460 1458 1456 1458 1457 1457 1460 1462 1465 1467 1469 1466 1461 1462 1465 1454 1448 1457 1459 1456 1459 1461 1460 1462 1464 1464 1466 1467 1469 1472 1473 1474 1476 1478 1479
1398 1400 1401 1402 1402 1403 1402 1402 1405 1407 1406 1410 1414 1414 1414 1416 1415 1414 1416 1421 1423 1422 1424 1425 1423 1421 1423 1424 1426 1429 1432 1434 1436 1436 1438 1444 1448 1452 1455 1456 1456 1456 1457 1459 1459 1460 1460 1456 1453 1457 1457 1454 1455 1459 1459 1460 1461 1459 1457 1456 1457 1458 1460 1461 1461 1460 1462 1458 1450 1452 1459 1456 1454 1456 1456 1458 1461 1461 1463 1465 1466 1468 1471 1471 1473 1475 1475 1477
1392 1394 1398 1401 1401 1401 1402 1403 1405 1407 1406 1409 1412 1412 1412 1412 1411 1409 1411 1416 1417 1416 1418 1417 1413 1415 1421 1422 1423 1424 1423 1423 1426 1429 1433 1439 1444 1446 1446 1446 1449 1455 1458 1458 1459 1461 1460 1456 1455 1459 1460 1456 1456 1460 1462 1462 1462 1462 1460 1456 1455 1455 1458 1461 1461 1462 1464 1460 1454 1458 1462 1458 1454 1454 1456 1459 1460 1461 1463 1465 1465 1468 1469 1470 1472 1473 1473 1475
1389 1390 1392 1396 1399 1400 1402 1403 1405 1407 1407 1407 1408 1408 1409 1408 1406 1407 1409 1410 1410 1412 1413 1411 1409 1414 1419 1420 1420 1420 1419 1420 1423 1424 1427 1431 1434 1436 1437 1438 1442 1450 1455 1456 1456 1458 1459 1459 1460 1462 1460 1455 1456 1462 1465 1465 1468 1469 1460 1452 1453 1457 1458 1459 1459 1458 1459 1458 1458 1462 1460 1454 1454 1456 1458 1459 1460 1461 1463 1463 1465 1467 1467 1469 1470 1470 1471 1472
1388 1389 1388 1392 1396 1398 1399 1401 1404 1406 1404 1403 1403 1404 1405 1404 1404 1408 1411 1410 1409 1410 1410 1409 1410 1415 1417 1418 1417 1417 1418 1421 1423 1424 1426 1428 1428 1431 1434 1435 1437 1441 1447 1451 1453 1455 1456 1456 1459 1460 1457 1455 1460 1464 1465 1470 1473 1463 1444 1438 1448 1455 1455 1455 1454 1453 1454 1456 1459 1459 1452 1449 1453 1457 1458 1459 1460 1461 1461 1461 1464 1465 1466 1468 1468 1468 1469 1469